Location: Beutels
(47.8767°N, 9.8584°E)
Time: 13:41:36
(UTC+00:00)

ISS - Pass Details

Date: 24 January 2026
Orbit: 413 x 429 km, 51.6° (Epoch: 11 February)

Event Time Altitude Azimuth Distance (km) Brightness Sun altitude
Rises 16:53:09 0° 286° (WNW) 2,361 1.0 -7.7°
Reaches altitude 10° 16:55:19 10° 293° (WNW) 1,500 -0.2 -8.0°
Maximum altitude 16:58:33 44° 7° (N) 590 -3.2 -8.5°
Enters shadow 17:01:27 13° 80° (E) 1,364 -1.8 -9.0°
